Regional Weather Roundup
Issued by NWS Charleston, WV

Home | Current Version | Previous Version | Text Only | Print | Product List | Glossary Off
Versions: 1 2 3 4 5 6 7 8 9 10 11 12 13 14 15 16 17 18 19 20 21 22 23 24 25 26 27 28 29 30 31 32 33 34 35 36 37 38 39 40 41 42 43 44 45 46 47 48 49 50

000
ASUS41 KRLX 051210
RWRRLX
West Virginia Regional Weather Roundup
National Weather Service Charleston WV
800 AM EDT SAT SEP 05 2015

Note: "fair" indicates few or no clouds below 12,000 feet with no
significant weather and/or obstructions to visibility.

WVZ003-051300-
Northern Panhandle of West Virginia

CITY           SKY/WX    TMP DP  RH WIND       PRES   REMARKS
WHEELING       SUNNY     66  62  87 CALM      30.19R
$$

WVZ009-051300-
Northwest West Virginia

CITY           SKY/WX    TMP DP  RH WIND       PRES   REMARKS
PARKERSBURG    SUNNY     66  65  96 CALM      30.19S FOG
$$

WVZ006-051300-
Western West Virginia

CITY           SKY/WX    TMP DP  RH WIND       PRES   REMARKS
HUNTINGTON     SUNNY     67  66  97 CALM      30.15R FOG
$$

WVZ015-051300-
West Central West Virginia

CITY           SKY/WX    TMP DP  RH WIND       PRES   REMARKS
CHARLESTON     MOSUNNY   66  65  96 CALM      30.16R
$$

WVZ022-031-051300-
North Central West Virginia

CITY           SKY/WX    TMP DP  RH WIND       PRES   REMARKS
CLARKSBURG     SUNNY     65  64  97 CALM      30.20R
MORGANTOWN     SUNNY     73  63  70 E8        30.21R
$$

WVZ025-035-042-045-051300-
Southern West Virginia

CITY           SKY/WX    TMP DP  RH WIND       PRES   REMARKS
BECKLEY        SUNNY     66  63  90 SE3       30.25R FOG
LOGAN            N/A     72  64  78 VRB5      30.18S
BLUEFIELD      CLOUDY    68  62  81 CALM      30.28R HAZE
LEWISBURG      MOSUNNY   65  64  95 N5        30.26S FOG
$$

WVZ047-051300-
Northern Mountains of West Virginia

CITY           SKY/WX    TMP DP  RH WIND       PRES   REMARKS
ELKINS         FOG       62  61  96 CALM      30.26R VSB 1/4
$$

WVZ052-051300-
Eastern Panhandle of West Virginia

CITY           SKY/WX    TMP DP  RH WIND       PRES   REMARKS
MARTINSBURG    MOSUNNY   71  67  87 NE5       30.25R FOG
PETERSBURG     CLOUDY    67  67  98 CALM      30.25S FOG
$$


USA.gov is the U.S. government's official web portal to all federal, state and local government web resources and services.